This is the latest recevied weather packets stored in our database for station/object HP1CDW-13. If no packets are shown the sender has not sent any weather packets the latest 1 day(s).
| Time | Temp. | Humidity | Pressure | Rain* | Wind** | Luminosity | Snow |
|---|---|---|---|---|---|---|---|
| 1778023490 | 26.67° C | 94% | 1012.8 hPa | 0.51 mm | 0 m/s | - | - |
| 1778022890 | 26.67° C | 94% | 1012.8 hPa | 1.27 mm | 0.45 m/s, 299° | - | - |
| 1778022290 | 26.67° C | 94% | 1012.7 hPa | 1.78 mm | 0 m/s | - | - |
| 1778021690 | 26.67° C | 95% | 1012.6 hPa | 1.78 mm | 0.45 m/s, 212° | - | - |
| 1778021090 | 26.67° C | 95% | 1012.7 hPa | 1.78 mm | 0 m/s | - | - |
| 1778020490 | 27.22° C | 95% | 1012.7 hPa | 1.78 mm | 0 m/s | - | - |
| 1778019890 | 27.22° C | 94% | 1012.5 hPa | 1.02 mm | 0.45 m/s, 11° | - | - |
| 1778019290 | 27.78° C | 93% | 1012.3 hPa | 0.25 mm | 0.45 m/s, 23° | - | - |
| 1778018690 | 27.78° C | 93% | 1012.6 hPa | 0 mm | 0 m/s | - | - |
| 1778018090 | 27.78° C | 92% | 1012.4 hPa | 0 mm | 0.89 m/s, 102° | - | - |
| 1778017490 | 28.33° C | 91% | 1012.4 hPa | 0 mm | 0.45 m/s, 147° | - | - |
| 1778016890 | 28.33° C | 89% | 1012.3 hPa | 0 mm | 0.45 m/s, 116° | - | - |
| 1778016290 | 28.89° C | 89% | 1012.4 hPa | 0 mm | 1.34 m/s, 179° | - | - |
| 1778015690 | 28.89° C | 89% | 1012.2 hPa | 0 mm | 0 m/s | - | - |
| 1778015090 | 28.89° C | 88% | 1012.3 hPa | 0 mm | 0.45 m/s, 179° | - | - |
| 1778014490 | 28.89° C | 90% | 1012.4 hPa | 0 mm | 1.34 m/s, 239° | - | - |
| 1778013890 | 28.33° C | 91% | 1012.5 hPa | 0 mm | 0.45 m/s, 107° | - | - |
| 1778013290 | 28.33° C | 92% | 1012.4 hPa | 0 mm | 0.89 m/s, 144° | - | - |
| 1778012690 | 28.33° C | 93% | 1012.2 hPa | 0 mm | 0.89 m/s, 201° | - | - |
| 1778012090 | 27.78° C | 94% | 1012.6 hPa | 0 mm | 0.45 m/s, 95° | - | - |
| 1778011490 | 27.78° C | 95% | 1012.3 hPa | 0 mm | 0.45 m/s, 157° | - | - |
| 1778010890 | 27.78° C | 94% | 1012.4 hPa | 0 mm | 0.89 m/s, 127° | - | - |
| 1778010290 | 27.78° C | 93% | 1012.6 hPa | 0 mm | 0 m/s | - | - |
| 1778009690 | 27.22° C | 95% | 1012.8 hPa | 0.25 mm | 0 m/s | - | - |
| 1778009090 | 27.22° C | 96% | 1013.1 hPa | 1.27 mm | 0 m/s | - | - |
* Rain latest hour (hover to see other rain measurements)
** Current wind speed in m/s (hover to see current wind gust speed)